Location: Lane
(33.5226°N, 79.8788°W)
Time: 02:32:48
(UTC+00:00)

Vanguard 1 Rocket - Pass Details

Date: 04 October 2022
Orbit: 650 x 4225 km, 34.3° (Epoch: 06 December)

Event Time Altitude Azimuth Distance (km) Brightness Sun altitude
Rises 04:05:20 0° 277° (W) 7,019 12.2 -57.3°
Reaches altitude 10° 04:10:49 10° 278° (W) 5,435 11.5 -57.9°
Enters shadow 04:16:24 25° 278° (W) 3,713 10.5 -58.4°
